Time,TemperatureF,DewpointF,PressureIn,WindDirection,WindDirectionDegrees,WindSpeedMPH,WindSpeedGustMPH,Humidity,HourlyPrecipIn,Conditions,Clouds,dailyrainin,SoftwareType,DateUTC
2013-07-19 00:02:00,78.0,71.0,30.11,North,0,0.0,0.0,80,0.00,,,0.00,,2013-07-19 04:02:00,
2013-07-19 00:22:00,78.0,72.0,30.11,North,0,0.0,0.0,81,0.00,,,0.00,,2013-07-19 04:22:00,
2013-07-19 00:52:00,78.0,72.0,30.11,North,0,0.0,0.0,81,0.00,,,0.00,,2013-07-19 04:52:00,
2013-07-19 01:02:00,78.0,72.0,30.10,North,0,0.0,0.0,82,0.00,,,0.00,,2013-07-19 05:02:00,
2013-07-19 01:12:00,78.0,72.0,30.10,North,0,0.0,0.0,82,0.00,,,0.00,,2013-07-19 05:12:00,
2013-07-19 01:22:00,78.0,72.0,30.10,North,0,0.0,0.0,83,0.00,,,0.00,,2013-07-19 05:22:00,
2013-07-19 01:32:00,78.0,72.0,30.10,North,0,0.0,0.0,83,0.00,,,0.00,,2013-07-19 05:32:00,
2013-07-19 01:43:00,77.0,71.0,30.10,North,0,0.0,0.0,83,0.00,,,0.00,,2013-07-19 05:43:00,
2013-07-19 01:53:00,77.0,71.0,30.10,North,0,0.0,0.0,83,0.00,,,0.00,,2013-07-19 05:53:00,
2013-07-19 02:01:00,77.0,71.0,30.09,North,0,0.0,0.0,83,0.00,,,0.00,,2013-07-19 06:01:00,
2013-07-19 02:11:00,77.0,71.0,30.09,North,0,0.0,0.0,83,0.00,,,0.00,,2013-07-19 06:11:00,
2013-07-19 02:22:00,77.0,71.0,30.09,North,0,0.0,0.0,83,0.00,,,0.00,,2013-07-19 06:22:00,
2013-07-19 02:43:00,77.0,72.0,30.09,North,0,0.0,0.0,84,0.00,,,0.00,,2013-07-19 06:43:00,
2013-07-19 02:53:00,77.0,72.0,30.09,North,0,0.0,0.0,84,0.00,,,0.00,,2013-07-19 06:53:00,
2013-07-19 03:12:00,76.0,71.0,30.08,North,0,0.0,0.0,84,0.00,,,0.00,,2013-07-19 07:12:00,
2013-07-19 03:33:00,76.0,71.0,30.08,North,0,0.0,0.0,84,0.00,,,0.00,,2013-07-19 07:33:00,
2013-07-19 03:43:00,76.0,71.0,30.08,North,0,0.0,0.0,84,0.00,,,0.00,,2013-07-19 07:43:00,
2013-07-19 03:53:00,76.0,71.0,30.08,North,0,0.0,0.0,85,0.00,,,0.00,,2013-07-19 07:53:00,
2013-07-19 04:01:00,76.0,71.0,30.08,North,0,0.0,0.0,85,0.00,,,0.00,,2013-07-19 08:01:00,
2013-07-19 04:12:00,76.0,71.0,30.08,North,0,0.0,0.0,85,0.00,,,0.00,,2013-07-19 08:12:00,
2013-07-19 04:22:00,76.0,71.0,30.08,North,0,0.0,0.0,85,0.00,,,0.00,,2013-07-19 08:22:00,
2013-07-19 04:33:00,76.0,71.0,30.08,North,0,0.0,0.0,85,0.00,,,0.00,,2013-07-19 08:33:00,
2013-07-19 04:43:00,75.0,70.0,30.07,North,0,0.0,0.0,85,0.00,,,0.00,,2013-07-19 08:43:00,
2013-07-19 04:52:00,75.0,70.0,30.07,North,0,0.0,0.0,85,0.00,,,0.00,,2013-07-19 08:52:00,
2013-07-19 05:02:00,75.0,70.0,30.07,North,0,0.0,0.0,85,0.00,,,0.00,,2013-07-19 09:02:00,
2013-07-19 05:22:00,75.0,70.0,30.07,North,0,0.0,0.0,85,0.00,,,0.00,,2013-07-19 09:22:00,
2013-07-19 05:32:00,75.0,70.0,30.07,North,0,0.0,0.0,85,0.00,,,0.00,,2013-07-19 09:32:00,
2013-07-19 05:43:00,75.0,70.0,30.07,North,0,0.0,0.0,85,0.00,,,0.00,,2013-07-19 09:43:00,
2013-07-19 05:52:00,75.0,70.0,30.07,North,0,0.0,0.0,85,0.00,,,0.00,,2013-07-19 09:52:00,
2013-07-19 06:11:00,74.0,70.0,30.08,North,0,0.0,0.0,86,0.00,,,0.00,,2013-07-19 10:11:00,
2013-07-19 06:33:00,74.0,70.0,30.09,North,0,0.0,0.0,86,0.00,,,0.00,,2013-07-19 10:33:00,
2013-07-19 06:43:00,74.0,70.0,30.09,North,0,0.0,0.0,86,0.00,,,0.00,,2013-07-19 10:43:00,
2013-07-19 06:52:00,74.0,70.0,30.09,North,0,0.0,0.0,86,0.00,,,0.00,,2013-07-19 10:52:00,
2013-07-19 07:02:00,74.0,70.0,30.10,North,0,0.0,0.0,86,0.00,,,0.00,,2013-07-19 11:02:00,
2013-07-19 07:12:00,74.0,70.0,30.10,North,0,0.0,0.0,86,0.00,,,0.00,,2013-07-19 11:12:00,
2013-07-19 07:22:00,74.0,70.0,30.10,North,0,0.0,0.0,87,0.00,,,0.00,,2013-07-19 11:22:00,
2013-07-19 07:33:00,75.0,71.0,30.10,North,0,0.0,0.0,87,0.00,,,0.00,,2013-07-19 11:33:00,
2013-07-19 08:01:00,76.0,72.0,30.10,North,0,0.0,1.0,88,0.00,,,0.00,,2013-07-19 12:01:00,
2013-07-19 08:12:00,76.0,72.0,30.10,North,0,0.0,1.0,88,0.00,,,0.00,,2013-07-19 12:12:00,
2013-07-19 08:22:00,77.0,73.0,30.11,North,0,0.0,4.0,87,0.00,,,0.00,,2013-07-19 12:22:00,
2013-07-19 08:33:00,78.0,73.0,30.11,North,0,0.0,2.0,86,0.00,,,0.00,,2013-07-19 12:33:00,
2013-07-19 08:44:00,78.0,73.0,30.11,North,0,0.0,2.0,86,0.00,,,0.00,,2013-07-19 12:44:00,
2013-07-19 08:53:00,78.0,73.0,30.11,North,0,0.0,2.0,86,0.00,,,0.00,,2013-07-19 12:53:00,
2013-07-19 09:02:00,78.0,73.0,30.11,North,0,0.0,2.0,86,0.00,,,0.00,,2013-07-19 13:02:00,
2013-07-19 09:12:00,78.0,73.0,30.11,North,0,0.0,2.0,86,0.00,,,0.00,,2013-07-19 13:12:00,
2013-07-19 09:32:00,83.0,74.0,30.12,West,279,1.0,5.0,75,0.00,,,0.00,,2013-07-19 13:32:00,
2013-07-19 09:53:00,84.0,74.0,30.11,West,272,1.0,4.0,72,0.00,,,0.00,,2013-07-19 13:53:00,
2013-07-19 10:02:00,84.0,74.0,30.11,West,272,1.0,4.0,72,0.00,,,0.00,,2013-07-19 14:02:00,
2013-07-19 10:12:00,84.0,74.0,30.11,West,272,1.0,4.0,72,0.00,,,0.00,,2013-07-19 14:12:00,
2013-07-19 10:23:00,84.0,74.0,30.11,West,272,1.0,4.0,72,0.00,,,0.00,,2013-07-19 14:23:00,
2013-07-19 10:43:00,86.0,74.0,30.11,North,0,0.0,1.0,68,0.00,,,0.00,,2013-07-19 14:43:00,
2013-07-19 10:53:00,86.0,74.0,30.11,North,0,0.0,1.0,68,0.00,,,0.00,,2013-07-19 14:53:00,
2013-07-19 11:02:00,86.0,75.0,30.12,North,0,0.0,0.0,70,0.00,,,0.00,,2013-07-19 15:02:00,
2013-07-19 11:11:00,86.0,75.0,30.12,North,0,0.0,0.0,70,0.00,,,0.00,,2013-07-19 15:11:00,
2013-07-19 11:23:00,87.0,75.0,30.12,North,0,0.0,5.0,68,0.00,,,0.00,,2013-07-19 15:23:00,
2013-07-19 11:32:00,84.0,74.0,30.12,North,0,0.0,0.0,73,0.25,,,0.25,,2013-07-19 15:32:00,
2013-07-19 11:43:00,84.0,76.0,30.11,North,0,0.0,0.0,76,0.25,,,0.25,,2013-07-19 15:43:00,
2013-07-19 11:52:00,85.0,78.0,30.11,North,0,0.0,0.0,79,0.25,,,0.25,,2013-07-19 15:52:00,
2013-07-19 12:01:00,85.0,78.0,30.11,North,0,0.0,0.0,79,0.25,,,0.25,,2013-07-19 16:01:00,
2013-07-19 12:11:00,85.0,78.0,30.11,North,0,0.0,0.0,79,0.25,,,0.25,,2013-07-19 16:11:00,
2013-07-19 12:22:00,85.0,78.0,30.11,North,0,0.0,0.0,79,0.25,,,0.25,,2013-07-19 16:22:00,
2013-07-19 12:32:00,85.0,78.0,30.11,North,0,0.0,0.0,79,0.25,,,0.25,,2013-07-19 16:32:00,
2013-07-19 12:43:00,88.0,77.0,30.10,North,0,0.0,6.0,69,0.00,,,0.25,,2013-07-19 16:43:00,
2013-07-19 12:53:00,88.0,77.0,30.10,North,0,0.0,6.0,69,0.00,,,0.25,,2013-07-19 16:53:00,
2013-07-19 13:02:00,88.0,77.0,30.10,North,0,0.0,6.0,69,0.00,,,0.25,,2013-07-19 17:02:00,
2013-07-19 13:43:00,89.0,74.0,30.09,WSW,248,1.0,8.0,61,0.00,,,0.25,,2013-07-19 17:43:00,
2013-07-19 13:52:00,89.0,74.0,30.09,WSW,248,1.0,8.0,61,0.00,,,0.25,,2013-07-19 17:52:00,
2013-07-19 14:01:00,89.0,75.0,30.09,NNW,327,1.0,5.0,63,0.00,,,0.25,,2013-07-19 18:01:00,
2013-07-19 14:22:00,89.0,75.0,30.08,WNW,294,1.0,6.0,64,0.00,,,0.25,,2013-07-19 18:22:00,
2013-07-19 16:33:00,90.0,75.0,30.05,SW,236,1.0,14.0,61,0.00,,,0.25,,2013-07-19 20:33:00,
2013-07-19 17:01:00,89.0,73.0,30.04,WSW,249,1.0,4.0,60,0.00,,,0.25,,2013-07-19 21:01:00,
2013-07-19 17:22:00,89.0,73.0,30.04,West,266,2.0,10.0,60,0.00,,,0.25,,2013-07-19 21:22:00,
2013-07-19 17:31:00,89.0,73.0,30.03,WSW,247,1.0,8.0,59,0.00,,,0.25,,2013-07-19 21:31:00,
2013-07-19 17:32:00,89.0,73.0,30.04,West,266,2.0,10.0,60,0.00,,,0.25,,2013-07-19 21:32:00,
2013-07-19 17:43:00,89.0,73.0,30.03,South,171,1.0,12.0,59,0.00,,,0.25,,2013-07-19 21:43:00,
2013-07-19 18:21:00,89.0,73.0,30.03,WSW,247,1.0,8.0,59,0.00,,,0.25,,2013-07-19 22:21:00,
2013-07-19 18:52:00,87.0,71.0,30.01,West,270,2.0,7.0,60,0.00,,,0.25,,2013-07-19 22:52:00,
2013-07-19 19:02:00,87.0,71.0,30.01,West,270,2.0,7.0,60,0.00,,,0.25,,2013-07-19 23:02:00,
2013-07-19 19:11:00,87.0,71.0,30.01,West,270,2.0,7.0,60,0.00,,,0.25,,2013-07-19 23:11:00,
2013-07-19 19:22:00,87.0,71.0,30.01,West,270,2.0,7.0,60,0.00,,,0.25,,2013-07-19 23:22:00,
2013-07-19 19:33:00,86.0,71.0,30.01,SSW,212,2.0,5.0,61,0.00,,,0.25,,2013-07-19 23:33:00,
2013-07-19 19:52:00,85.0,72.0,30.01,North,0,0.0,5.0,66,0.00,,,0.25,,2013-07-19 23:52:00,
2013-07-19 20:01:00,85.0,72.0,30.01,North,0,0.0,5.0,66,0.00,,,0.25,,2013-07-20 00:01:00,
2013-07-19 20:11:00,84.0,72.0,30.01,WSW,241,1.0,11.0,67,0.00,,,0.25,,2013-07-20 00:11:00,
2013-07-19 20:22:00,84.0,72.0,30.01,WSW,241,1.0,11.0,67,0.00,,,0.25,,2013-07-20 00:22:00,
2013-07-19 20:32:00,83.0,72.0,30.01,North,0,0.0,0.0,69,0.00,,,0.25,,2013-07-20 00:32:00,
2013-07-19 20:43:00,82.0,71.0,30.02,North,0,0.0,0.0,70,0.00,,,0.25,,2013-07-20 00:43:00,
2013-07-19 20:52:00,82.0,71.0,30.02,North,0,0.0,0.0,70,0.00,,,0.25,,2013-07-20 00:52:00,
2013-07-19 21:01:00,82.0,72.0,30.02,North,0,0.0,0.0,72,0.00,,,0.25,,2013-07-20 01:01:00,
2013-07-19 21:22:00,81.0,72.0,30.03,North,0,0.0,0.0,73,0.00,,,0.25,,2013-07-20 01:22:00,
2013-07-19 21:32:00,80.0,71.0,30.03,North,0,0.0,7.0,74,0.00,,,0.25,,2013-07-20 01:32:00,
2013-07-19 21:52:00,80.0,71.0,30.03,SW,220,1.0,5.0,75,0.00,,,0.25,,2013-07-20 01:52:00,
2013-07-19 22:02:00,80.0,71.0,30.03,SW,220,1.0,5.0,75,0.00,,,0.25,,2013-07-20 02:02:00,
2013-07-19 22:11:00,80.0,72.0,30.03,North,0,0.0,1.0,77,0.00,,,0.25,,2013-07-20 02:11:00,
2013-07-19 22:22:00,80.0,72.0,30.04,North,0,0.0,1.0,77,0.00,,,0.25,,2013-07-20 02:22:00,
2013-07-19 22:43:00,80.0,72.0,30.04,North,0,0.0,0.0,78,0.00,,,0.25,,2013-07-20 02:43:00,
2013-07-19 22:52:00,80.0,72.0,30.04,North,0,0.0,0.0,78,0.00,,,0.25,,2013-07-20 02:52:00,
2013-07-19 23:02:00,79.0,72.0,30.05,North,0,0.0,1.0,78,0.00,,,0.25,,2013-07-20 03:02:00,
2013-07-19 23:22:00,79.0,72.0,30.06,North,0,0.0,1.0,78,0.00,,,0.25,,2013-07-20 03:22:00,
2013-07-19 23:44:00,79.0,72.0,30.06,North,0,0.0,7.0,78,0.00,,,0.25,,2013-07-20 03:44:00,
2013-07-19 23:53:00,79.0,72.0,30.06,North,0,0.0,7.0,78,0.00,,,0.25,,2013-07-20 03:53:00,